Weather History for KOTH - August, 2013

Change the Weather History Date:

Monday, August 5, 2013

  Actual Average Record
Temperature  
Mean Temperature - 59 °F  
Max Temperature - 65 °F 83 °F (1932)
Min Temperature - 53 °F 42 °F (1909)
Degree Days  
Heating Degree Days 6  
Month to date heating degree days 30  
Since 1 June heating degree days 265 494  
Since 1 July heating degree days 95 227  
Cooling Degree Days 0  
Month to date cooling degree days 0  
Year to date cooling degree days 4 0  
Since 1 June cooling degree days 0 0  
Moisture  
Dew Point -    
Average Humidity    
Maximum Humidity    
Minimum Humidity    
Precipitation  
Precipitation 0.00 in 0.02 in 0.17 in (1957)
Month to date precipitation 0.00 0.06  
Year to date precipitation 17.49 36.68  
Sea Level Pressure  
Sea Level Pressure 30.02 in    
Wind  
Wind Speed 13 mph (North)    
Max Wind Speed 20 mph    
Max Gust Speed 27 mph    
Visibility 8 miles    
Events      
T = Trace of Precipitation, MM = Missing Value Source: NWS Daily Summary

Daily Weather History Graph

Daily Weather History Graph

Search for Another Location

Airport or City:

Trip Planner

Search our weather history database for the weather conditions in past years. The results will help you decide how hot, cold, wet, or windy it might be!

Date:

Astronomy

Aug. 05, 2013 Rise Set
Actual Time 6:11 AM PDT 8:33 PM PDT
Civil Twilight 5:39 AM PDT 9:05 PM PDT
Nautical Twilight 4:59 AM PDT 9:45 PM PDT
Astronomical Twilight 4:15 AM PDT 10:29 PM PDT
Moon 5:12 AM PDT (8/5) 7:36 PM PDT (8/5)
Length of Visible Light 15h 26m
Length of Day
14h 22m
Waning Crescent, 1% of the Moon is Illuminated
Aug 5
Waning Crescent
Aug 6
New
Aug 14
First Quarter
Aug 20
Full
Aug 28
Last Quarter

Hourly Weather History & Observations

Time (PDT) Temp. Dew Point Humidity Pressure Visibility Wind Dir Wind Speed Gust Speed Precip Events Conditions
12:15 AM - - N/A% 30.05 in 2.5 mi North 6.9 mph - N/A   Overcast
12:35 AM - - N/A% 30.05 in 2.5 mi North 6.9 mph - N/A   Overcast
12:55 AM - - N/A% 30.05 in 2.5 mi North 6.9 mph - N/A   Overcast
1:15 AM - - N/A% 30.04 in 2.5 mi North 9.2 mph - N/A   Overcast
1:35 AM - - N/A% 30.04 in 3.0 mi North 8.1 mph - N/A   Overcast
1:55 AM - - N/A% 30.04 in 3.0 mi North 10.4 mph - N/A   Overcast
2:15 AM - - N/A% 30.04 in 7.0 mi North 13.8 mph - N/A   Overcast
2:35 AM - - N/A% 30.04 in 9.0 mi NNE 9.2 mph - N/A   Overcast
2:55 AM - - N/A% 30.04 in 6.0 mi NNE 9.2 mph - N/A   Overcast
3:15 AM - - N/A% 30.03 in 8.0 mi NNE 10.4 mph - N/A   Overcast
3:35 AM - - N/A% 30.03 in 10.0 mi NNE 10.4 mph - N/A   Overcast
3:55 AM - - N/A% 30.03 in 9.0 mi North 11.5 mph - N/A   Overcast
4:15 AM - - N/A% 30.03 in 5.0 mi NNE 10.4 mph - N/A   Overcast
4:35 AM - - N/A% 30.03 in 7.0 mi North 10.4 mph - N/A   Overcast
4:55 AM - - N/A% 30.03 in 5.0 mi North 11.5 mph - N/A   Overcast
5:15 AM - - N/A% 30.03 in 8.0 mi North 9.2 mph - N/A   Overcast
5:35 AM - - N/A% 30.03 in 6.0 mi North 10.4 mph - N/A   Overcast
5:55 AM - - N/A% 30.03 in 9.0 mi North 10.4 mph - N/A   Overcast
6:15 AM - - N/A% 30.04 in 10.0 mi NNE 10.4 mph - N/A   Overcast
6:35 AM - - N/A% 30.04 in 8.0 mi North 8.1 mph - N/A   Overcast
6:55 AM - - N/A% 30.04 in 7.0 mi North 11.5 mph - N/A   Overcast
7:15 AM - - N/A% 30.04 in 3.0 mi North 6.9 mph - N/A   Overcast
7:35 AM - - N/A% 30.04 in 5.0 mi North 5.8 mph - N/A   Overcast
7:55 AM - - N/A% 30.03 in 3.0 mi North 5.8 mph - N/A   Overcast
8:15 AM - - N/A% 30.04 in 10.0 mi North 6.9 mph - N/A   Overcast
8:35 AM - - N/A% 30.04 in 10.0 mi North 8.1 mph - N/A   Overcast
8:55 AM - - N/A% 30.04 in 9.0 mi North 4.6 mph - N/A   Overcast
9:15 AM - - N/A% 30.04 in 10.0 mi Calm Calm - N/A   Overcast
9:35 AM - - N/A% 30.04 in 9.0 mi Calm Calm - N/A   Overcast
9:55 AM - - N/A% 30.04 in 10.0 mi NNE 4.6 mph - N/A   Overcast
10:15 AM - - N/A% 30.05 in 10.0 mi NE 4.6 mph - N/A   Overcast
10:35 AM - - N/A% 30.05 in 10.0 mi North 11.5 mph - N/A   Overcast
10:55 AM - - N/A% 30.05 in 10.0 mi North 9.2 mph - N/A   Overcast
11:15 AM - - N/A% 30.05 in 10.0 mi NW 5.8 mph - N/A   Overcast
11:35 AM - - N/A% 30.04 in 10.0 mi North 6.9 mph - N/A   Overcast
11:55 AM - - N/A% 30.04 in 10.0 mi North 11.5 mph - N/A   Overcast
12:15 PM - - N/A% 30.04 in 10.0 mi North 13.8 mph - N/A   Overcast
12:35 PM - - N/A% 30.04 in 10.0 mi North 15.0 mph 19.6 mph N/A   Scattered Clouds
12:55 PM - - N/A% 30.03 in 10.0 mi North 12.7 mph - N/A   Scattered Clouds
1:15 PM - - N/A% 30.03 in 10.0 mi North 18.4 mph - N/A   Clear
1:35 PM - - N/A% 30.03 in 10.0 mi North 21.9 mph - N/A   Clear
1:55 PM - - N/A% 30.03 in 10.0 mi North 19.6 mph - N/A   Clear
2:15 PM - - N/A% 30.03 in 10.0 mi North 17.3 mph 26.5 mph N/A   Scattered Clouds
2:35 PM - - N/A% 30.02 in 10.0 mi North 19.6 mph 26.5 mph N/A   Partly Cloudy
2:55 PM - - N/A% 30.02 in 10.0 mi North 18.4 mph 24.2 mph N/A   Partly Cloudy
3:15 PM - - N/A% 30.02 in 10.0 mi NNW 19.6 mph 27.6 mph N/A   Scattered Clouds
3:35 PM - - N/A% 30.01 in 10.0 mi North 19.6 mph 23.0 mph N/A   Scattered Clouds
3:55 PM - - N/A% 30.00 in 10.0 mi North 19.6 mph 26.5 mph N/A   Scattered Clouds
4:15 PM - - N/A% 30.00 in 10.0 mi North 20.7 mph 25.3 mph N/A   Partly Cloudy
4:35 PM - - N/A% 29.99 in 10.0 mi North 24.2 mph 28.8 mph N/A   Clear
4:55 PM - - N/A% 29.99 in 10.0 mi North 18.4 mph 26.5 mph N/A   Clear
5:15 PM - - N/A% 29.99 in 10.0 mi North 20.7 mph 27.6 mph N/A   Clear
5:35 PM - - N/A% 29.98 in 10.0 mi North 21.9 mph 27.6 mph N/A   Clear
5:55 PM - - N/A% 29.98 in 10.0 mi NNW 19.6 mph 26.5 mph N/A   Clear
6:15 PM - - N/A% 29.99 in 10.0 mi North 19.6 mph 25.3 mph N/A   Clear
6:35 PM - - N/A% 29.98 in 10.0 mi North 18.4 mph 25.3 mph N/A   Clear
6:55 PM - - N/A% 29.98 in 10.0 mi NNW 18.4 mph 26.5 mph N/A   Scattered Clouds
7:15 PM - - N/A% 29.99 in 10.0 mi NNW 16.1 mph - N/A   Mostly Cloudy
7:35 PM - - N/A% 29.99 in 10.0 mi NNW 17.3 mph - N/A   Overcast
7:55 PM - - N/A% 29.99 in 10.0 mi North 17.3 mph 23.0 mph N/A   Overcast
8:15 PM - - N/A% 29.99 in 10.0 mi NNW 17.3 mph 21.9 mph N/A   Overcast
8:35 PM - - N/A% 30.00 in 10.0 mi North 17.3 mph - N/A   Overcast
8:55 PM - - N/A% 30.01 in 8.0 mi North 13.8 mph - N/A   Overcast
9:15 PM - - N/A% 30.01 in 2.0 mi North 9.2 mph 17.3 mph N/A   Overcast
9:35 PM - - N/A% 30.01 in 2.0 mi North 12.7 mph - N/A   Overcast
9:55 PM - - N/A% 30.01 in 2.0 mi North 15.0 mph - N/A   Overcast
10:15 PM - - N/A% 30.01 in 2.0 mi North 12.7 mph 18.4 mph N/A   Overcast
10:35 PM - - N/A% 30.01 in 2.0 mi North 12.7 mph 17.3 mph N/A   Overcast
10:55 PM - - N/A% 30.01 in 2.0 mi North 10.4 mph - N/A   Overcast
11:15 PM - - N/A% 30.01 in 4.0 mi North 12.7 mph 17.3 mph N/A   Overcast
11:35 PM - - N/A% 30.02 in 2.5 mi North 8.1 mph - N/A   Overcast
11:55 PM - - N/A% 30.02 in 4.0 mi North 13.8 mph - N/A   Overcast